Location: Atherton
(17.2661°S, 145.4859°E)
Time: 02:12:27
(UTC+10:00)

Vanguard 1 Rocket - All Passes

Search period start: 24 June 2025 00:00
Search period end: 04 July 2025 00:00
Orbit: 651 x 4216 km, 34.3° (Epoch: 22 June)

Date Brightness Start Highest point End Pass type
(mag) Time Alt. Az. Time Alt. Az. Time Alt. Az.
24 Jun - 09:33:21 10° N 09:44:27 22° NE 09:59:45 10° E daylight
24 Jun - 11:54:46 10° NW 12:13:37 68° NE 12:39:47 10° ESE daylight
24 Jun - 14:23:34 10° WNW 14:47:48 67° SSW 15:11:44 10° ESE daylight
24 Jun - 17:00:06 10° WSW 17:24:59 47° S 17:41:38 10° ESE daylight
24 Jun - 19:38:45 10° WSW 19:59:17 56° SSE 20:09:52 10° E visible
24 Jun - 22:13:43 10° WSW 22:27:29 59° NW 22:34:29 10° NE visible
25 Jun - 10:42:45 10° NNW 10:58:19 47° NE 11:21:57 10° ESE daylight
25 Jun - 13:08:27 10° WNW 13:30:03 82° SSW 13:56:18 10° ESE daylight
25 Jun - 15:41:28 10° W 16:06:45 52° SSW 16:27:13 10° ESE daylight
25 Jun - 18:20:05 10° WSW 18:43:21 50° S 18:56:41 10° E visible
25 Jun - 20:56:32 10° WSW 21:14:28 86° SSE 21:23:06 10° ENE visible
25 Jun - 23:32:15 10° W 23:39:26 20° NW 23:44:21 10° N visible
26 Jun - 09:32:14 10° N 09:44:08 28° NE 10:01:52 10° E daylight
26 Jun - 11:54:50 10° NW 12:13:19 79° NE 12:39:59 10° ESE daylight
26 Jun - 14:24:23 10° W 14:48:15 61° SSW 15:12:11 10° ESE daylight
26 Jun - 17:01:03 10° WSW 17:26:03 48° S 17:42:45 10° ESE daylight
26 Jun - 19:38:48 10° WSW 20:00:07 65° SSE 20:10:53 10° ENE visible
26 Jun - 22:14:08 10° WSW 22:27:34 45° NW 22:34:44 10° NNE visible
27 Jun - 08:25:27 10° NNE 08:30:35 12° NE 08:36:42 10° ENE daylight
27 Jun - 10:42:33 10° NNW 10:57:53 56° NE 11:22:26 10° ESE daylight
27 Jun - 13:09:00 10° WNW 13:30:11 74° SSW 13:56:31 10° ESE daylight
27 Jun - 15:42:33 10° W 16:07:41 50° S 16:28:06 10° ESE daylight
27 Jun - 18:20:29 10° WSW 18:44:19 55° SSE 18:57:51 10° E visible
27 Jun - 20:56:33 10° WSW 21:14:49 78° NW 21:23:43 10° NE visible
27 Jun - 23:34:35 10° W 23:39:21 14° NW 23:43:06 10° NNW visible
28 Jun - 09:31:34 10° NNW 09:43:44 35° NE 10:03:13 10° ESE daylight
28 Jun - 11:55:08 10° NW 12:13:11 89° NE 12:40:04 10° ESE daylight
28 Jun - 14:25:21 10° W 14:48:55 56° SSW 15:12:46 10° ESE daylight
28 Jun - 17:01:52 10° WSW 17:27:07 50° S 17:43:55 10° ESE daylight
28 Jun - 19:38:47 10° WSW 20:00:44 76° SSE 20:11:46 10° ENE visible
28 Jun - 22:14:49 10° WSW 22:27:31 35° NW 22:34:44 10° NNE visible
29 Jun - 08:22:44 10° NNE 08:30:27 17° NE 08:41:02 10° E daylight
29 Jun - 10:42:34 10° NW 10:57:33 67° NE 11:22:41 10° ESE daylight
29 Jun - 13:09:44 10° WNW 13:30:32 66° SSW 13:56:47 10° ESE daylight
29 Jun - 15:43:37 10° WSW 16:08:42 50° S 16:29:07 10° ESE daylight
29 Jun - 18:20:42 10° WSW 18:45:11 61° SSE 18:58:55 10° E visible
29 Jun - 20:56:39 10° WSW 21:14:58 63° NW 21:24:08 10° NE visible
30 Jun - 09:31:13 10° NNW 09:43:20 43° NE 10:04:03 10° ESE daylight
30 Jun - 11:55:38 10° WNW 12:13:15 81° SSW 12:40:09 10° ESE daylight
30 Jun - 14:26:25 10° W 14:49:45 53° S 15:13:29 10° ESE daylight
30 Jun - 17:02:30 10° WSW 17:28:08 53° S 17:45:05 10° E daylight
30 Jun - 19:38:43 10° WSW 20:01:10 89° SSE 20:12:29 10° ENE visible
30 Jun - 22:15:54 10° W 22:27:21 26° NW 22:34:24 10° N visible
01 Jul - 08:21:26 10° N 08:30:11 23° NE 08:43:31 10° E daylight
01 Jul - 10:42:48 10° NW 10:57:22 78° NE 11:22:47 10° ESE daylight
01 Jul - 13:10:39 10° W 13:31:06 60° SSW 13:57:09 10° ESE daylight
01 Jul - 15:44:36 10° WSW 16:09:47 50° S 16:30:13 10° ESE daylight
01 Jul - 18:20:48 10° WSW 18:45:51 69° SSE 18:59:51 10° ENE visible
01 Jul - 20:56:55 10° WSW 21:14:55 51° NW 21:24:21 10° NNE visible
02 Jul - 09:31:07 10° NNW 09:43:00 53° NE 10:04:32 10° ESE daylight
02 Jul - 11:56:18 10° WNW 12:13:32 72° SSW 12:40:14 10° ESE daylight
02 Jul - 14:27:32 10° WSW 14:50:43 51° S 15:14:21 10° ESE daylight
02 Jul - 17:02:58 10° WSW 17:29:01 58° SSE 17:46:11 10° E daylight
02 Jul - 19:38:41 10° WSW 20:01:22 79° NW 20:13:01 10° NE visible
02 Jul - 22:17:38 10° W 22:27:08 20° NW 22:33:38 10° N visible
03 Jul - 08:20:43 10° N 08:29:53 30° NE 08:45:04 10° ESE daylight
03 Jul - 10:43:13 10° NW 10:57:23 89° NNE 11:22:47 10° ESE daylight
03 Jul - 13:11:41 10° W 13:31:52 56° SSW 13:57:39 10° ESE daylight
03 Jul - 15:45:27 10° WSW 16:10:48 52° S 16:31:20 10° E daylight
03 Jul - 18:20:50 10° WSW 18:46:19 79° SSE 19:00:38 10° ENE visible
03 Jul - 20:57:26 10° WSW 21:14:43 40° NW 21:24:20 10° NNE visible
